Time,TemperatureF,DewpointF,PressureIn,WindDirection,WindDirectionDegrees,WindSpeedMPH,WindSpeedGustMPH,Humidity,HourlyPrecipIn,Conditions,Clouds,dailyrainin,SoftwareType,DateUTC
2013-01-28 00:01:00,31.0,25.0,-100.00,SW,225,8.0,15.0,77,-99.99,,,-99.99,,2013-01-28 08:01:00,
2013-01-28 00:11:00,31.0,25.0,-100.00,SW,225,8.0,15.0,78,-99.99,,,-99.99,,2013-01-28 08:11:00,
2013-01-28 00:21:00,31.0,25.0,-100.00,SW,225,8.0,15.0,78,-99.99,,,-99.99,,2013-01-28 08:21:00,
2013-01-28 00:31:00,31.0,25.0,-100.00,SW,225,8.0,16.0,78,-99.99,,,-99.99,,2013-01-28 08:31:00,
2013-01-28 00:42:00,31.0,25.0,-100.00,SW,225,8.0,13.0,78,-99.99,,,-99.99,,2013-01-28 08:42:00,
2013-01-28 00:52:00,31.0,25.0,-100.00,SW,225,8.0,13.0,78,-99.99,,,-99.99,,2013-01-28 08:52:00,
2013-01-28 01:01:00,31.0,25.0,-100.00,SW,225,9.0,14.0,78,-99.99,,,-99.99,,2013-01-28 09:01:00,
2013-01-28 01:11:00,31.0,25.0,-100.00,SW,225,9.0,15.0,77,-99.99,,,-99.99,,2013-01-28 09:11:00,
2013-01-28 01:21:00,31.0,25.0,-100.00,SW,225,9.0,15.0,77,-99.99,,,-99.99,,2013-01-28 09:21:00,
2013-01-28 01:31:00,31.0,25.0,-100.00,SW,225,10.0,15.0,76,-99.99,,,-99.99,,2013-01-28 09:31:00,
2013-01-28 01:41:00,32.0,25.0,-100.00,SW,225,8.0,16.0,76,-99.99,,,-99.99,,2013-01-28 09:41:00,
2013-01-28 01:52:00,32.0,25.0,-100.00,SW,225,8.0,16.0,76,-99.99,,,-99.99,,2013-01-28 09:52:00,
2013-01-28 02:01:00,32.0,25.0,-100.00,SW,225,9.0,12.0,76,-99.99,,,-99.99,,2013-01-28 10:01:00,
2013-01-28 02:11:00,31.0,25.0,-100.00,SW,225,4.0,10.0,76,-99.99,,,-99.99,,2013-01-28 10:11:00,
2013-01-28 02:21:00,31.0,25.0,-100.00,SW,225,4.0,10.0,76,-99.99,,,-99.99,,2013-01-28 10:21:00,
2013-01-28 02:31:00,31.0,24.0,-100.00,SW,225,4.0,7.0,76,-99.99,,,-99.99,,2013-01-28 10:31:00,
2013-01-28 02:41:00,31.0,24.0,-100.00,SW,225,4.0,7.0,76,-99.99,,,-99.99,,2013-01-28 10:41:00,
2013-01-28 02:52:00,31.0,24.0,-100.00,SW,225,4.0,7.0,76,-99.99,,,-99.99,,2013-01-28 10:52:00,
2013-01-28 03:01:00,31.0,24.0,-100.00,SW,225,2.0,4.0,76,-99.99,,,-99.99,,2013-01-28 11:01:00,
2013-01-28 03:11:00,31.0,24.0,-100.00,SW,225,4.0,6.0,76,-99.99,,,-99.99,,2013-01-28 11:11:00,
2013-01-28 03:21:00,31.0,24.0,-100.00,SW,225,4.0,6.0,76,-99.99,,,-99.99,,2013-01-28 11:21:00,
2013-01-28 03:32:00,31.0,24.0,-100.00,SW,225,5.0,6.0,77,-99.99,,,-99.99,,2013-01-28 11:32:00,
2013-01-28 03:42:00,31.0,24.0,-100.00,SW,225,4.0,9.0,76,-99.99,,,-99.99,,2013-01-28 11:42:00,
2013-01-28 03:52:00,31.0,24.0,-100.00,SW,225,4.0,9.0,76,-99.99,,,-99.99,,2013-01-28 11:52:00,
2013-01-28 04:03:00,31.0,24.0,-100.00,SW,225,5.0,6.0,76,-99.99,,,-99.99,,2013-01-28 12:03:00,
2013-01-28 04:11:00,31.0,24.0,-100.00,SW,225,4.0,8.0,75,-99.99,,,-99.99,,2013-01-28 12:11:00,
2013-01-28 04:23:00,31.0,24.0,-100.00,SW,225,4.0,8.0,75,-99.99,,,-99.99,,2013-01-28 12:23:00,
2013-01-28 04:32:00,31.0,24.0,-100.00,SW,225,4.0,8.0,74,-99.99,,,-99.99,,2013-01-28 12:32:00,
2013-01-28 04:42:00,32.0,24.0,-100.00,SW,225,4.0,7.0,73,-99.99,,,-99.99,,2013-01-28 12:42:00,
2013-01-28 04:52:00,32.0,24.0,-100.00,SW,225,4.0,7.0,73,-99.99,,,-99.99,,2013-01-28 12:52:00,
2013-01-28 05:02:00,32.0,23.0,-100.00,SW,225,3.0,5.0,69,-99.99,,,-99.99,,2013-01-28 13:02:00,
2013-01-28 05:11:00,32.0,23.0,-100.00,West,270,2.0,4.0,69,-99.99,,,-99.99,,2013-01-28 13:11:00,
2013-01-28 05:22:00,32.0,23.0,-100.00,West,270,2.0,4.0,69,-99.99,,,-99.99,,2013-01-28 13:22:00,
2013-01-28 05:32:00,32.0,23.0,-100.00,SW,225,4.0,7.0,67,-99.99,,,-99.99,,2013-01-28 13:32:00,
2013-01-28 05:42:00,32.0,22.0,-100.00,South,180,1.0,4.0,68,-99.99,,,-99.99,,2013-01-28 13:42:00,
2013-01-28 05:52:00,32.0,22.0,-100.00,South,180,1.0,4.0,68,-99.99,,,-99.99,,2013-01-28 13:52:00,
2013-01-28 06:02:00,31.0,23.0,-100.00,SW,225,2.0,4.0,70,-99.99,,,-99.99,,2013-01-28 14:02:00,
2013-01-28 06:11:00,32.0,22.0,-100.00,NW,315,4.0,9.0,67,-99.99,,,-99.99,,2013-01-28 14:11:00,
2013-01-28 06:22:00,32.0,22.0,-100.00,NW,315,4.0,9.0,67,-99.99,,,-99.99,,2013-01-28 14:22:00,
2013-01-28 06:32:00,32.0,22.0,-100.00,SW,225,2.0,9.0,65,-99.99,,,-99.99,,2013-01-28 14:32:00,
2013-01-28 06:42:00,32.0,22.0,-100.00,SW,225,3.0,5.0,67,-99.99,,,-99.99,,2013-01-28 14:42:00,
2013-01-28 06:53:00,32.0,22.0,-100.00,SW,225,3.0,5.0,67,-99.99,,,-99.99,,2013-01-28 14:53:00,
2013-01-28 07:02:00,32.0,22.0,-100.00,South,180,6.0,7.0,68,-99.99,,,-99.99,,2013-01-28 15:02:00,
2013-01-28 07:12:00,32.0,22.0,-100.00,SW,225,4.0,6.0,68,-99.99,,,-99.99,,2013-01-28 15:12:00,
2013-01-28 07:23:00,32.0,22.0,-100.00,SW,225,4.0,6.0,68,-99.99,,,-99.99,,2013-01-28 15:23:00,
2013-01-28 07:32:00,32.0,22.0,-100.00,SE,135,4.0,4.0,68,-99.99,,,-99.99,,2013-01-28 15:32:00,
2013-01-28 07:42:00,32.0,23.0,-100.00,SW,225,2.0,8.0,69,-99.99,,,-99.99,,2013-01-28 15:42:00,
2013-01-28 07:53:00,32.0,23.0,-100.00,SW,225,2.0,8.0,69,-99.99,,,-99.99,,2013-01-28 15:53:00,
2013-01-28 08:03:00,32.0,23.0,-100.00,South,180,3.0,6.0,69,-99.99,,,-99.99,,2013-01-28 16:03:00,
2013-01-28 08:12:00,32.0,23.0,-100.00,SW,225,4.0,7.0,68,-99.99,,,-99.99,,2013-01-28 16:12:00,
2013-01-28 08:22:00,32.0,23.0,-100.00,SW,225,4.0,7.0,68,-99.99,,,-99.99,,2013-01-28 16:22:00,
2013-01-28 08:32:00,32.0,23.0,-100.00,South,180,4.0,7.0,68,-99.99,,,-99.99,,2013-01-28 16:32:00,
2013-01-28 08:42:00,32.0,23.0,-100.00,SW,225,3.0,6.0,68,-99.99,,,-99.99,,2013-01-28 16:42:00,
2013-01-28 08:53:00,32.0,23.0,-100.00,SW,225,3.0,6.0,68,-99.99,,,-99.99,,2013-01-28 16:53:00,
2013-01-28 09:01:00,32.0,23.0,-100.00,SW,225,4.0,6.0,68,-99.99,,,-99.99,,2013-01-28 17:01:00,
2013-01-28 09:11:00,32.0,23.0,-100.00,SW,225,3.0,6.0,68,-99.99,,,-99.99,,2013-01-28 17:11:00,
2013-01-28 09:22:00,32.0,23.0,-100.00,SW,225,3.0,6.0,68,-99.99,,,-99.99,,2013-01-28 17:22:00,
2013-01-28 09:32:00,32.0,23.0,-100.00,SW,225,2.0,5.0,68,-99.99,,,-99.99,,2013-01-28 17:32:00,
2013-01-28 09:41:00,32.0,23.0,-100.00,SW,225,4.0,6.0,67,-99.99,,,-99.99,,2013-01-28 17:41:00,
2013-01-28 09:52:00,32.0,23.0,-100.00,SW,225,4.0,6.0,67,-99.99,,,-99.99,,2013-01-28 17:52:00,
2013-01-28 10:02:00,32.0,23.0,-100.00,SW,225,4.0,8.0,67,-99.99,,,-99.99,,2013-01-28 18:02:00,
2013-01-28 10:12:00,33.0,23.0,-100.00,South,180,4.0,8.0,67,-99.99,,,-99.99,,2013-01-28 18:12:00,
2013-01-28 10:23:00,33.0,23.0,-100.00,South,180,4.0,8.0,67,-99.99,,,-99.99,,2013-01-28 18:23:00,
2013-01-28 10:33:00,33.0,23.0,-100.00,South,180,6.0,10.0,67,-99.99,,,-99.99,,2013-01-28 18:33:00,
2013-01-28 10:42:00,33.0,24.0,-100.00,SW,225,4.0,7.0,67,-99.99,,,-99.99,,2013-01-28 18:42:00,
2013-01-28 10:52:00,33.0,24.0,-100.00,SW,225,4.0,7.0,67,-99.99,,,-99.99,,2013-01-28 18:52:00,
2013-01-28 11:01:00,33.0,24.0,-100.00,West,270,1.0,6.0,67,-99.99,,,-99.99,,2013-01-28 19:01:00,
2013-01-28 11:12:00,34.0,24.0,-100.00,SW,225,3.0,6.0,67,-99.99,,,-99.99,,2013-01-28 19:12:00,
2013-01-28 11:22:00,34.0,24.0,-100.00,SW,225,3.0,6.0,67,-99.99,,,-99.99,,2013-01-28 19:22:00,
2013-01-28 11:32:00,34.0,24.0,-100.00,West,270,3.0,4.0,66,-99.99,,,-99.99,,2013-01-28 19:32:00,
2013-01-28 11:42:00,34.0,23.0,-100.00,SW,225,6.0,8.0,65,-99.99,,,-99.99,,2013-01-28 19:42:00,
2013-01-28 11:52:00,34.0,23.0,-100.00,SW,225,6.0,8.0,65,-99.99,,,-99.99,,2013-01-28 19:52:00,
2013-01-28 12:02:00,34.0,24.0,-100.00,SW,225,6.0,8.0,65,-99.99,,,-99.99,,2013-01-28 20:02:00,
2013-01-28 12:11:00,35.0,24.0,-100.00,SW,225,3.0,6.0,65,-99.99,,,-99.99,,2013-01-28 20:11:00,
2013-01-28 12:21:00,35.0,24.0,-100.00,SW,225,3.0,6.0,65,-99.99,,,-99.99,,2013-01-28 20:21:00,
2013-01-28 12:32:00,35.0,24.0,-100.00,SW,225,5.0,7.0,63,-99.99,,,-99.99,,2013-01-28 20:32:00,
2013-01-28 12:42:00,36.0,23.0,-100.00,SW,225,7.0,11.0,60,-99.99,,,-99.99,,2013-01-28 20:42:00,
2013-01-28 12:52:00,36.0,23.0,-100.00,SW,225,7.0,11.0,60,-99.99,,,-99.99,,2013-01-28 20:52:00,
2013-01-28 13:02:00,36.0,24.0,-100.00,West,270,3.0,8.0,60,-99.99,,,-99.99,,2013-01-28 21:02:00,
2013-01-28 13:11:00,36.0,23.0,-100.00,SW,225,3.0,11.0,57,-99.99,,,-99.99,,2013-01-28 21:11:00,
2013-01-28 13:22:00,36.0,23.0,-100.00,SW,225,3.0,11.0,57,-99.99,,,-99.99,,2013-01-28 21:22:00,
2013-01-28 13:33:00,37.0,23.0,-100.00,SW,225,2.0,8.0,56,-99.99,,,-99.99,,2013-01-28 21:33:00,
2013-01-28 13:42:00,37.0,23.0,-100.00,South,180,3.0,9.0,55,-99.99,,,-99.99,,2013-01-28 21:42:00,
2013-01-28 13:52:00,37.0,23.0,-100.00,South,180,3.0,9.0,55,-99.99,,,-99.99,,2013-01-28 21:52:00,
2013-01-28 14:01:00,37.0,23.0,-100.00,SW,225,1.0,6.0,55,-99.99,,,-99.99,,2013-01-28 22:01:00,
2013-01-28 14:11:00,37.0,23.0,-100.00,East,90,4.0,6.0,55,-99.99,,,-99.99,,2013-01-28 22:11:00,
2013-01-28 14:22:00,37.0,23.0,-100.00,East,90,4.0,6.0,55,-99.99,,,-99.99,,2013-01-28 22:22:00,
2013-01-28 14:32:00,37.0,22.0,-100.00,NE,45,4.0,6.0,55,-99.99,,,-99.99,,2013-01-28 22:32:00,
2013-01-28 14:42:00,37.0,22.0,-100.00,SE,135,4.0,6.0,55,-99.99,,,-99.99,,2013-01-28 22:42:00,
2013-01-28 14:52:00,37.0,22.0,-100.00,SE,135,4.0,6.0,55,-99.99,,,-99.99,,2013-01-28 22:52:00,
2013-01-28 15:01:00,37.0,22.0,-100.00,SW,225,3.0,6.0,55,-99.99,,,-99.99,,2013-01-28 23:01:00,
2013-01-28 15:11:00,37.0,23.0,-100.00,South,180,5.0,16.0,56,-99.99,,,-99.99,,2013-01-28 23:11:00,
2013-01-28 15:22:00,37.0,23.0,-100.00,South,180,5.0,16.0,56,-99.99,,,-99.99,,2013-01-28 23:22:00,
2013-01-28 15:32:00,37.0,23.0,-100.00,SW,225,7.0,12.0,57,-99.99,,,-99.99,,2013-01-28 23:32:00,
2013-01-28 15:42:00,36.0,23.0,-100.00,South,180,10.0,14.0,58,-99.99,,,-99.99,,2013-01-28 23:42:00,
2013-01-28 15:53:00,36.0,23.0,-100.00,South,180,10.0,14.0,58,-99.99,,,-99.99,,2013-01-28 23:53:00,
2013-01-28 16:02:00,36.0,24.0,-100.00,SW,225,8.0,18.0,61,-99.99,,,-99.99,,2013-01-29 00:02:00,
2013-01-28 16:11:00,36.0,24.0,-100.00,South,180,8.0,15.0,61,-99.99,,,-99.99,,2013-01-29 00:11:00,
2013-01-28 16:22:00,36.0,24.0,-100.00,South,180,8.0,15.0,61,-99.99,,,-99.99,,2013-01-29 00:22:00,
2013-01-28 16:32:00,36.0,24.0,-100.00,SW,225,7.0,14.0,62,-99.99,,,-99.99,,2013-01-29 00:32:00,
2013-01-28 16:42:00,37.0,24.0,-100.00,SW,225,7.0,9.0,60,-99.99,,,-99.99,,2013-01-29 00:42:00,
2013-01-28 16:52:00,37.0,24.0,-100.00,SW,225,7.0,9.0,60,-99.99,,,-99.99,,2013-01-29 00:52:00,
2013-01-28 17:01:00,40.0,23.0,-100.00,SW,225,7.0,20.0,51,-99.99,,,-99.99,,2013-01-29 01:01:00,
2013-01-28 17:11:00,39.0,22.0,-100.00,SW,225,6.0,11.0,51,-99.99,,,-99.99,,2013-01-29 01:11:00,
2013-01-28 17:22:00,39.0,22.0,-100.00,SW,225,6.0,11.0,51,-99.99,,,-99.99,,2013-01-29 01:22:00,
2013-01-28 17:31:00,38.0,22.0,-100.00,South,180,11.0,14.0,53,-99.99,,,-99.99,,2013-01-29 01:31:00,
2013-01-28 17:42:00,36.0,23.0,-100.00,SW,225,7.0,13.0,59,-99.99,,,-99.99,,2013-01-29 01:42:00,
2013-01-28 17:52:00,36.0,23.0,-100.00,SW,225,7.0,13.0,59,-99.99,,,-99.99,,2013-01-29 01:52:00,
2013-01-28 18:01:00,36.0,24.0,-100.00,South,180,5.0,16.0,62,-99.99,,,-99.99,,2013-01-29 02:01:00,
2013-01-28 18:11:00,36.0,24.0,-100.00,SW,225,11.0,15.0,62,-99.99,,,-99.99,,2013-01-29 02:11:00,
2013-01-28 18:21:00,36.0,24.0,-100.00,SW,225,11.0,15.0,62,-99.99,,,-99.99,,2013-01-29 02:21:00,
2013-01-28 18:32:00,37.0,24.0,-100.00,SW,225,9.0,16.0,60,-99.99,,,-99.99,,2013-01-29 02:32:00,
2013-01-28 18:41:00,36.0,24.0,-100.00,SW,225,9.0,17.0,60,-99.99,,,-99.99,,2013-01-29 02:41:00,
2013-01-28 18:53:00,36.0,24.0,-100.00,SW,225,9.0,17.0,60,-99.99,,,-99.99,,2013-01-29 02:53:00,
2013-01-28 19:02:00,36.0,24.0,-100.00,SW,225,5.0,13.0,60,-99.99,,,-99.99,,2013-01-29 03:02:00,
2013-01-28 19:11:00,37.0,24.0,-100.00,SW,225,9.0,14.0,58,-99.99,,,-99.99,,2013-01-29 03:11:00,
2013-01-28 19:21:00,37.0,24.0,-100.00,SW,225,9.0,14.0,58,-99.99,,,-99.99,,2013-01-29 03:21:00,
2013-01-28 19:31:00,37.0,23.0,-100.00,SW,225,11.0,20.0,58,-99.99,,,-99.99,,2013-01-29 03:31:00,
2013-01-28 19:41:00,36.0,24.0,-100.00,SW,225,12.0,18.0,62,-99.99,,,-99.99,,2013-01-29 03:41:00,
2013-01-28 19:53:00,36.0,24.0,-100.00,SW,225,12.0,18.0,62,-99.99,,,-99.99,,2013-01-29 03:53:00,
2013-01-28 20:01:00,36.0,24.0,-100.00,SW,225,9.0,14.0,60,-99.99,,,-99.99,,2013-01-29 04:01:00,
2013-01-28 20:11:00,38.0,23.0,-100.00,SW,225,9.0,21.0,54,-99.99,,,-99.99,,2013-01-29 04:11:00,
2013-01-28 20:21:00,38.0,23.0,-100.00,SW,225,9.0,21.0,54,-99.99,,,-99.99,,2013-01-29 04:21:00,
2013-01-28 20:32:00,38.0,23.0,-100.00,SW,225,12.0,16.0,54,-99.99,,,-99.99,,2013-01-29 04:32:00,
2013-01-28 20:41:00,37.0,23.0,-100.00,SW,225,6.0,16.0,55,-99.99,,,-99.99,,2013-01-29 04:41:00,
2013-01-28 20:52:00,37.0,23.0,-100.00,SW,225,6.0,16.0,55,-99.99,,,-99.99,,2013-01-29 04:52:00,
2013-01-28 21:03:00,37.0,23.0,-100.00,SW,225,7.0,15.0,56,-99.99,,,-99.99,,2013-01-29 05:03:00,
2013-01-28 21:12:00,37.0,23.0,-100.00,SW,225,4.0,14.0,55,-99.99,,,-99.99,,2013-01-29 05:12:00,
2013-01-28 21:21:00,37.0,23.0,-100.00,SW,225,4.0,14.0,55,-99.99,,,-99.99,,2013-01-29 05:21:00,
2013-01-28 21:31:00,38.0,23.0,-100.00,SW,225,9.0,18.0,54,-99.99,,,-99.99,,2013-01-29 05:31:00,
2013-01-28 21:42:00,38.0,23.0,-100.00,SW,225,8.0,19.0,55,-99.99,,,-99.99,,2013-01-29 05:42:00,
2013-01-28 21:52:00,38.0,23.0,-100.00,SW,225,8.0,19.0,55,-99.99,,,-99.99,,2013-01-29 05:52:00,
2013-01-28 22:01:00,38.0,23.0,-100.00,SW,225,8.0,19.0,55,-99.99,,,-99.99,,2013-01-29 06:01:00,
2013-01-28 22:11:00,37.0,23.0,-100.00,SW,225,4.0,18.0,57,-99.99,,,-99.99,,2013-01-29 06:11:00,
2013-01-28 22:21:00,37.0,23.0,-100.00,SW,225,4.0,18.0,57,-99.99,,,-99.99,,2013-01-29 06:21:00,
2013-01-28 22:31:00,37.0,23.0,-100.00,South,180,8.0,17.0,57,-99.99,,,-99.99,,2013-01-29 06:31:00,
2013-01-28 22:41:00,37.0,23.0,-100.00,SW,225,7.0,17.0,57,-99.99,,,-99.99,,2013-01-29 06:41:00,
2013-01-28 22:52:00,37.0,23.0,-100.00,SW,225,7.0,17.0,57,-99.99,,,-99.99,,2013-01-29 06:52:00,
2013-01-28 23:01:00,37.0,24.0,-100.00,SW,225,6.0,13.0,58,-99.99,,,-99.99,,2013-01-29 07:01:00,
2013-01-28 23:11:00,37.0,23.0,-100.00,SW,225,8.0,14.0,57,-99.99,,,-99.99,,2013-01-29 07:11:00,
2013-01-28 23:21:00,37.0,23.0,-100.00,SW,225,8.0,14.0,57,-99.99,,,-99.99,,2013-01-29 07:21:00,
2013-01-28 23:31:00,37.0,24.0,-100.00,SW,225,9.0,17.0,57,-99.99,,,-99.99,,2013-01-29 07:31:00,
2013-01-28 23:41:00,37.0,24.0,-100.00,SW,225,10.0,14.0,58,-99.99,,,-99.99,,2013-01-29 07:41:00,
2013-01-28 23:52:00,37.0,24.0,-100.00,SW,225,10.0,14.0,58,-99.99,,,-99.99,,2013-01-29 07:52:00,